Weather History for GMMZ - March, 2013

Change the Weather History Date:

Saturday, March 30, 2013

  Actual Average Record
Temperature  
Mean Temperature 68 °F -  
Max Temperature 83 °F 77 °F - ()
Min Temperature 54 °F 50 °F - ()
Cooling Degree Days 4    
Growing Degree Days 18 (Base 50)    
Moisture  
Dew Point 25 °F    
Average Humidity 18    
Maximum Humidity 36    
Minimum Humidity 4    
Precipitation  
Precipitation 0.00 in 0.01 in - ()
Sea Level Pressure  
Sea Level Pressure 30.14 in    
Wind  
Wind Speed 7 mph ()    
Max Wind Speed 22 mph    
Max Gust Speed -    
Visibility 8.5 miles    
Events      
T = Trace of Precipitation, MM = Missing Value Source: Averaged Metar Reports

Daily Weather History Graph

Daily Weather History Graph

Search for Another Location

Airport or City:

Trip Planner

Search our weather history database for the weather conditions in past years. The results will help you decide how hot, cold, wet, or windy it might be!

Date:

Astronomy

Mar. 30, 2013 Rise Set
Actual Time 6:18 AM WET 6:45 PM WET
Civil Twilight 5:54 AM WET 7:09 PM WET
Nautical Twilight 5:26 AM WET 7:38 PM WET
Astronomical Twilight 4:57 AM WET 8:07 PM WET
Moon 10:21 PM WET (3/30) 8:17 AM WET (3/30)
Length of Visible Light 13h 15m
Length of Day
12h 26m
Waning Gibbous, 88% of the Moon is Illuminated
Mar 30
Waning Gibbous
Apr 3
Last Quarter
Apr 10
New
Apr 18
First Quarter
Apr 25
Full

Hourly Weather History & Observations

Time (WET) Temp. Dew Point Humidity Pressure Visibility Wind Dir Wind Speed Gust Speed Precip Events Conditions
12:00 AM 67 °F 30 °F 14%  in 12 mi West 8.1 mph - -   Scattered Clouds
12:00 AM 66.2 °F 30.2 °F 26% 30.21 in - West 8.1 mph - N/A   Clear
2:00 AM 59.0 °F 30.2 °F 34% 30.12 in - West 6.9 mph - N/A   Unknown
3:00 AM 58 °F 29 °F 21%  in 12 mi West 4.6 mph - -  
3:00 AM 59.0 °F 28.4 °F 31% 30.12 in - West 6.9 mph - N/A   Clear
4:00 AM 57.2 °F 28.4 °F 33% 30.18 in - Calm Calm - N/A   Clear
5:00 AM 55.4 °F 28.4 °F 36% 30.18 in - ESE 3.5 mph - N/A   Unknown
6:00 AM 59 °F 28 °F 19%  in 12 mi SSW 2.3 mph - -  
6:00 AM 59.0 °F 28.4 °F 31% 30.18 in - Variable 2.3 mph - N/A   Clear
7:00 AM 60.8 °F 28.4 °F 29% 30.21 in - Variable 3.5 mph - N/A   Clear
8:00 AM 62.6 °F 26.6 °F 26% 30.21 in - Variable 1.2 mph - N/A   Clear
9:00 AM 71 °F 21 °F 7%  in 12 mi SE 3.5 mph - -  
9:00 AM 71.6 °F 19.4 °F 14% 30.18 in - SE 3.5 mph - N/A   Clear
10:00 AM 77.0 °F 17.6 °F 11% 30.18 in 6.2 mi Variable 1.2 mph - N/A   Partly Cloudy
11:00 AM 80.6 °F 17.6 °F 10% 30.18 in 6.2 mi WNW 15.0 mph - N/A   Partly Cloudy
12:00 PM 82 °F 20 °F 4%  in 12 mi West 16.1 mph - -   Scattered Clouds
12:00 PM 82.4 °F 19.4 °F 10% 30.18 in 6.2 mi West 16.1 mph - N/A   Partly Cloudy
1:00 PM 82.4 °F 23.0 °F 11% 30.15 in 6.2 mi WNW 19.6 mph - N/A   Partly Cloudy
2:00 PM 82.4 °F 23.0 °F 11% 30.12 in 6.2 mi WNW 17.3 mph - N/A   Scattered Clouds
3:00 PM 82 °F 25 °F 6%  in 12 mi WNW 12.7 mph - -   Scattered Clouds
3:00 PM 82.4 °F 24.8 °F 12% 30.09 in 6.2 mi WNW 12.7 mph - N/A   Mostly Cloudy
4:00 PM 82.4 °F 24.8 °F 12% 30.09 in 6.2 mi NW 17.3 mph - N/A   Scattered Clouds
5:00 PM 80.6 °F 24.8 °F 13% 30.09 in 6.2 mi NW 21.9 mph - N/A   Scattered Clouds
6:00 PM 80 °F 24 °F 6%  in 12 mi NNW 16.1 mph - -   Scattered Clouds
6:00 PM 80.6 °F 23.0 °F 12% 30.09 in 6.2 mi NNW 16.1 mph - N/A   Partly Cloudy
7:00 PM 77.0 °F 24.8 °F 14% 30.09 in 6.2 mi NW 12.7 mph - N/A   Partly Cloudy
8:00 PM 73.4 °F 24.8 °F 16% 30.09 in 6.2 mi WNW 10.4 mph - N/A   Partly Cloudy
9:00 PM 70 °F 28 °F 12%  in 12 mi West 3.5 mph - -   Scattered Clouds
9:00 PM 69.8 °F 28.4 °F 21% 30.12 in 6.2 mi West 3.5 mph - N/A   Partly Cloudy
10:00 PM 69.8 °F 26.6 °F 20% 30.12 in - SSW 2.3 mph - N/A   Clear
11:00 PM 66.2 °F 26.6 °F 23% 30.12 in - Calm Calm - N/A   Clear